Regional Weather Roundup
Issued by NWS Midland/Odessa, TX

Home | Current Version | Previous Version | Text Only | Print | Product List | Glossary On
Versions: 1 2 3 4 5 6 7 8 9 10 11 12 13 14 15 16 17 18 19 20 21 22 23 24 25 26 27 28 29 30 31 32 33 34 35 36 37 38 39 40 41 42 43 44 45 46 47 48 49 50
000
ASUS44 KMAF 181310
RWRMAF
MIDLAND AREA WEATHER ROUNDUP
NATIONAL WEATHER SERVICE MIDLAND TX
800 AM CDT SAT APR 18 2015

...IN SOUTHWEST TEXAS AND SOUTHEAST NEW MEXICO...

CITY           SKY/WX    TMP DP  RH WIND       PRES   REMARKS
ALPINE         CLEAR     44  40  85 SW6       30.08R
ANDREWS        FAIR      48  29  47 NW6       29.96R
ARTESIA        CLEAR     41  28  60 W10       30.00R WCI  35
BIG SPRING     PTCLDY    59  56  92 SE7       29.95S
CARLSBAD       CLEAR     45  27  49 W14       29.97S WCI  38
DRYDEN           N/A     64  61  90 NE6       29.93R
FORT STOCKTON  MOCLDY    55  32  41 SW9       29.96S
GUAD PASS      CLEAR     48   8  19 SW8       30.04S
HOBBS          CLEAR     41  32  70 NW8       29.97S WCI  36
MARFA          PTCLDY    41  34  75 N5        30.05R WCI  38
MIDLAND AIRPK  PTCLDY    55  53  95 CALM      29.94S
MIDLAND INTL   PTCLDY    52  49  89 CALM      29.93R
ODESSA         PTCLDY    52  42  69 SW3       29.95R
PECOS          PTCLDY    47  34  60 NW5       29.96R
PRESIDIO       FAIR      57  40  53 NW5       29.97R
SEMINOLE       PTCLDY    41  33  73 NW6       29.97R WCI  37
SNYDER         PTCLDY   N/A N/A N/A S6        29.93S HAZE
WINK           CLEAR     53  24  32 W10       29.94R
$$
...OTHER STATIONS IN TEXAS...

CITY           SKY/WX    TMP DP  RH WIND       PRES   REMARKS
ABILENE        MOSUNNY   61  59  93 S6        29.93F
AMARILLO       CLEAR     43  42  97 SW6       29.93F WCI  39
AUSTIN         FOG       65  65 100 NE7       29.88R VSB 1/2
BROWNSVILLE    CLOUDY    74  72  93 E6        29.83R FOG
CORPUS CHRISTI CLOUDY    71  69  93 N7        29.82S
DALLAS FTW     MOSUNNY   62  62 100 CALM      29.88S
DEL RIO        CLOUDY    65  63  93 N3        29.90R
EL PASO        PTCLDY    52  11  19 SW9       30.00R
HOUSTON INT    PTSUNNY   68  67  96 E10       29.85R
LUBBOCK        PTCLDY    42  35  76 N5        29.94S WCI  39
SAN ANGELO     PTCLDY    58  56  93 SW5       29.94R
SAN ANTONIO    CLOUDY    69  65  86 CALM      29.88R FOG
WACO           PTSUNNY   63  62  97 CALM      29.90R
WICHITA FALLS  NOT AVBL
$$
...OTHER LOCATIONS IN NEW MEXICO...

CITY           SKY/WX    TMP DP  RH WIND       PRES   REMARKS
ALAMAGORDO     CLEAR     37  19  48 SE5       30.01R WCI  34
ALBUQUERQUE    CLOUDY    39  26  59 CALM      30.00R
CANNON AFB     NOT AVBL
CLOVIS         CLEAR     34  25  69 W6        29.97R WCI  29
HOLLOMAN AFB   PTCLDY    38  20  49 SE6       30.00R WCI  33
ROSWELL        CLEAR     38  31  76 CALM      29.99R
RUIDOSO        CLEAR     36  14  41 N3        30.05R
SANTA FE       LGT SNOW  32  30  92 N7        29.98F FOG     WCI  26
TRUTH OR CONSE CLEAR     41  17  38 W7        30.02R WCI  36
TUCUMCARI      PTCLDY    41  23  48 W9        29.94R WCI  35
$$


USA.gov is the U.S. government's official web portal to all federal, state and local government web resources and services.